TimeCST,TemperatureF,Dew PointF,Humidity,Sea Level PressureIn,VisibilityMPH,Wind Direction,Wind SpeedMPH,Gust SpeedMPH,PrecipitationIn,Events,Conditions,WindDirDegrees,DateUTC
12:53 AM,28.9,21.9,75,29.89,10.0,Calm,Calm,-,N/A,,Clear,0,2013-02-05 06:53:00
1:53 AM,30.9,21.9,69,29.88,10.0,West,4.6,-,N/A,,Clear,280,2013-02-05 07:53:00
2:53 AM,28.9,21.9,75,29.88,10.0,WSW,5.8,-,N/A,,Clear,240,2013-02-05 08:53:00
3:53 AM,28.9,21.0,72,29.88,10.0,NNW,4.6,-,N/A,,Clear,340,2013-02-05 09:53:00
4:53 AM,30.0,21.9,72,29.90,10.0,Calm,Calm,-,N/A,,Clear,0,2013-02-05 10:53:00
5:53 AM,28.0,21.0,75,29.94,10.0,Calm,Calm,-,N/A,,Clear,0,2013-02-05 11:53:00
6:53 AM,33.1,21.9,64,29.95,10.0,WNW,6.9,-,N/A,,Clear,290,2013-02-05 12:53:00
7:53 AM,33.1,23.0,66,29.98,10.0,NW,15.0,-,N/A,,Clear,320,2013-02-05 13:53:00
8:53 AM,39.9,26.1,58,30.01,10.0,NNW,16.1,-,N/A,,Mostly Cloudy,340,2013-02-05 14:53:00
9:53 AM,44.1,27.0,51,30.03,10.0,NNW,18.4,21.9,N/A,,Clear,340,2013-02-05 15:53:00
10:53 AM,46.0,25.0,44,30.05,10.0,NNW,17.3,24.2,N/A,,Clear,330,2013-02-05 16:53:00
11:53 AM,48.9,25.0,39,30.05,10.0,NNW,13.8,-,N/A,,Clear,340,2013-02-05 17:53:00
12:53 PM,50.0,23.0,35,30.05,10.0,NNW,13.8,-,N/A,,Clear,330,2013-02-05 18:53:00
1:53 PM,51.1,21.9,32,30.03,10.0,North,12.7,19.6,N/A,,Clear,350,2013-02-05 19:53:00
2:53 PM,51.1,21.9,32,30.01,10.0,NW,12.7,-,N/A,,Clear,320,2013-02-05 20:53:00
3:53 PM,51.1,23.0,33,30.00,10.0,WNW,9.2,-,N/A,,Clear,300,2013-02-05 21:53:00
4:53 PM,51.1,21.9,32,29.99,10.0,Calm,Calm,-,N/A,,Clear,0,2013-02-05 22:53:00
5:53 PM,44.1,21.9,42,30.01,10.0,Calm,Calm,-,N/A,,Clear,0,2013-02-05 23:53:00
6:53 PM,30.0,17.1,59,30.03,10.0,Calm,Calm,-,N/A,,Clear,0,2013-02-06 00:53:00
7:53 PM,28.0,16.0,61,30.04,10.0,Calm,Calm,-,N/A,,Clear,0,2013-02-06 01:53:00
8:53 PM,30.9,19.9,64,30.02,10.0,Calm,Calm,-,N/A,,Overcast,0,2013-02-06 02:53:00
9:53 PM,39.0,23.0,53,29.99,10.0,SSE,8.1,-,N/A,,Overcast,150,2013-02-06 03:53:00
10:53 PM,39.9,24.1,53,29.97,10.0,SSE,12.7,-,N/A,,Mostly Cloudy,160,2013-02-06 04:53:00
11:53 PM,37.9,26.1,62,29.94,10.0,South,10.4,-,N/A,,Clear,170,2013-02-06 05:53:00